EW7191 Weather Reports


Display with metric or nautical units.
time (UTC)temp
F
wind
direction
speed
MPH
gust
MPH
rain 1hr
in
rain 24hr
in
rain mn
in
humidity
%
barometer
mb
20260506221550 82 231 0.0 1.0 0.00 0.00 0.00 37 1022.7
20260506220047 81 146 0.0 0.0 0.00 0.00 0.00 38 1022.9
20260506214544 80 200 0.0 0.0 0.00 0.00 0.00 39 1023.0
20260506213057 79 329 0.0 0.0 0.00 0.00 0.00 43 1023.3
20260506211538 78 60 0.0 0.0 0.00 0.00 0.00 47 1023.5
20260506210038 78 265 0.0 1.0 0.00 0.00 0.00 46 1023.5
20260506204536 77 72 0.0 0.0 0.00 0.00 0.00 47 1023.7
20260506203035 77 322 0.0 0.0 0.00 0.00 0.00 44 1023.9
20260506201532 76 229 0.0 0.0 0.00 0.00 0.00 45 1024.0
20260506200029 75 271 0.0 0.0 0.00 0.00 0.00 54 1024.3
20260506194527 74 273 0.0 0.0 0.00 0.00 0.00 57 1024.6
20260506193025 74 139 0.0 0.0 0.00 0.00 0.00 58 1024.8
20260506191524 73 302 0.0 0.0 0.00 0.00 0.00 57 1025.0
20260506190022 73 216 0.0 0.0 0.00 0.00 0.00 58 1025.3
20260506184538 71 264 0.0 0.0 0.00 0.00 0.00 60 1025.4
20260506183028 70 294 0.0 0.0 0.00 0.00 0.00 60 1025.4
20260506181517 69 275 0.0 0.0 0.00 0.00 0.00 61 1025.5
20260506180015 68 183 0.0 0.0 0.00 0.00 0.00 65 1025.5
20260506174512 68 264 0.0 0.0 0.00 0.00 0.00 64 1025.8
20260506173007 66 232 0.0 0.0 0.00 0.00 0.00 67 1025.8
20260506171507 65 269 0.0 0.0 0.00 0.00 0.00 70 1025.9
20260506170003 64 211 0.0 0.0 0.00 0.00 0.00 71 1025.9
20260506164613 63 249 0.0 0.0 0.00 0.00 0.00 74 1025.8
20260506163100 62 274 0.0 0.0 0.00 0.00 0.00 75 1025.9
20260506161553 61 252 0.0 0.0 0.00 0.00 0.00 78 1025.9
20260506160054 61 273 0.0 0.0 0.00 0.00 0.00 75 1025.8
20260506154550 59 208 0.0 0.0 0.00 0.00 0.00 81 1025.9
20260506153106 58 328 0.0 0.0 0.00 0.00 0.00 84 1025.8
20260506151543 56 127 0.0 0.0 0.00 0.00 0.00 89 1025.9
20260506150042 54 113 0.0 0.0 0.00 0.00 0.00 92 1026.0
20260506144534 52 96 0.0 0.0 0.00 0.00 0.00 93 1026.0
20260506143033 51 96 0.0 0.0 0.00 0.00 0.00 94 1025.9
20260506141531 50 96 0.0 0.0 0.00 0.00 0.00 94 1025.6
20260506140029 49 96 0.0 0.0 0.00 0.00 0.00 95 1025.4
20260506134525 48 96 0.0 0.0 0.00 0.00 0.00 95 1024.8
20260506133023 47 96 0.0 0.0 0.00 0.00 0.00 94 1024.8
20260506131532 47 96 0.0 0.0 0.00 0.00 0.00 94 1024.8
20260506130019 48 96 0.0 0.0 0.00 0.00 0.00 94 1024.4
20260506124517 48 96 0.0 0.0 0.00 0.00 0.00 93 1024.3
20260506123015 48 96 0.0 0.0 0.00 0.00 0.00 93 1024.2
20260506121513 48 96 0.0 0.0 0.00 0.00 0.00 93 1024.0
20260506120018 49 96 0.0 0.0 0.00 0.00 0.00 93 1024.1
20260506114518 49 89 0.0 0.0 0.00 0.00 0.00 93 1023.8
20260506113021 49 89 0.0 0.0 0.00 0.00 0.00 93 1023.8
20260506111506 49 89 0.0 0.0 0.00 0.00 0.00 93 1023.7
20260506110006 50 89 0.0 0.0 0.00 0.00 0.00 93 1023.5
20260506104500 50 89 0.0 0.0 0.00 0.00 0.00 92 1023.2
20260506103059 50 89 0.0 0.0 0.00 0.00 0.00 92 1023.1
20260506101556 50 89 0.0 0.0 0.00 0.00 0.00 91 1023.1
20260506100055 50 89 0.0 0.0 0.00 0.00 0.00 91 1023.0
20260506094553 51 89 0.0 0.0 0.00 0.00 0.00 91 1022.8
20260506093051 51 89 0.0 0.0 0.00 0.00 0.00 90 1022.7
20260506091554 51 89 0.0 0.0 0.00 0.00 0.00 90 1022.7
20260506090056 52 89 0.0 0.0 0.00 0.00 0.00 89 1022.7
20260506084550 52 89 0.0 0.0 0.00 0.00 0.00 89 1022.7
20260506083045 52 89 0.0 0.0 0.00 0.00 0.00 88 1022.6
20260506081541 53 89 0.0 0.0 0.00 0.00 0.00 88 1022.6
20260506073035 53 98 0.0 0.0 0.00 0.00 0.00 87 1022.1
20260506071532 54 98 0.0 0.0 0.00 0.00 0.00 85 1022.0
20260506061525 56 98 0.0 0.0 0.00 0.00 0.00 79 1021.5
20260506044522 61 84 0.0 0.0 0.00 0.00 0.00 69 1020.4
20260506043020 63 100 0.0 0.0 0.00 0.00 0.00 63 1020.1
20260506041519 65 288 0.0 0.0 0.00 0.00 0.00 60 1019.8
20260506040023 67 288 0.0 0.0 0.00 0.00 0.00 55 1019.7
20260506034522 68 75 0.0 0.0 0.00 0.00 0.00 52 1019.3
20260506033018 68 85 0.0 1.0 0.00 0.00 0.00 51 1019.2
20260506031518 69 84 0.0 0.0 0.00 0.00 0.00 50 1018.9
20260506030032 70 108 0.0 0.0 0.00 0.00 0.00 49 1018.7
20260506024539 72 60 0.0 3.0 0.00 0.00 0.00 47 1018.5
20260506023015 73 64 0.0 1.0 0.00 0.00 0.00 45 1018.4
20260506021514 74 39 0.0 3.0 0.00 0.00 0.00 43 1018.2
20260506020013 75 76 0.0 2.0 0.00 0.00 0.00 41 1018.0
20260506014513 76 87 0.0 0.0 0.00 0.00 0.00 38 1017.8
20260506013018 78 322 0.0 0.0 0.00 0.00 0.00 36 1017.7
20260506011513 80 304 0.0 0.0 0.00 0.00 0.00 35 1017.6
20260506010012 80 32 0.0 0.0 0.00 0.00 0.00 34 1017.7
20260506004510 80 300 0.0 0.0 0.00 0.00 0.00 33 1017.6
20260506003011 80 326 0.0 1.0 0.00 0.00 0.00 33 1017.5
20260506001509 80 31 0.0 1.0 0.00 0.00 0.00 33 1017.5
20260506000009 80 104 0.0 2.0 0.00 0.00 0.00 33 1017.5
20260505234509 81 293 0.0 0.0 0.00 0.00 0.00 36 1017.5
20260505233005 80 270 0.0 4.0 0.00 0.00 0.00 34 1017.6
20260505231504 79 79 0.0 1.0 0.00 0.00 0.00 36 1017.7
20260505230005 79 271 0.0 1.0 0.00 0.00 0.00 38 1017.8
20260505224559 78 304 0.0 3.0 0.00 0.00 0.00 38 1017.9
20260505223108 78 58 0.0 2.0 0.00 0.00 0.00 39 1018.2